LX1CU-13 Weather Reports


time (UTC)temp
C
wind
direction
speed
KPH
gust
KPH
rain 1hr
cm
rain 24hr
cm
rain mn
cm
humidity
%
barometer
mb
20260507093327 16 292 0.0 0.0 0.00 0.00 0.00 59 1011.4
20260507092827 16 292 0.0 0.0 0.00 0.00 0.00 59 1011.4
20260507092327 16 67 0.0 0.0 0.00 0.00 0.00 65 1011.3
20260507091827 15 67 0.0 0.0 0.00 0.00 0.00 68 1011.5
20260507091327 15 67 0.0 0.0 0.00 0.00 0.00 68 1011.3
20260507090828 13 315 0.0 0.0 0.00 0.00 0.00 71 1011.3
20260507090327 13 315 0.0 0.0 0.00 0.00 0.00 71 1011.3
20260507085827 13 315 0.0 0.0 0.00 0.00 0.00 71 1011.3
20260507085327 12 270 0.0 0.0 0.00 0.00 0.00 72 1011.2
20260507084827 12 292 0.0 0.0 0.00 0.00 0.00 72 1011.2
20260507084327 12 315 0.0 0.0 0.00 0.00 0.00 72 1011.2
20260507083827 12 247 0.0 0.0 0.00 0.00 0.00 73 1011.1
20260507083328 12 270 0.0 0.0 0.00 0.00 0.00 73 1011.1
20260507082828 12 292 0.0 0.0 0.00 0.00 0.00 73 1011.1
20260507082328 11 337 0.0 0.0 0.00 0.00 0.00 75 1011.1
20260507081828 11 315 0.0 0.0 0.00 0.00 0.00 75 1011.1
20260507081328 11 337 0.0 0.0 0.00 0.00 0.00 75 1011.0
20260507080828 11 337 0.0 0.0 0.00 0.00 0.00 75 1011.1
20260507080328 11 270 0.0 0.0 0.00 0.00 0.00 76 1011.0
20260507075828 11 270 0.0 0.0 0.00 0.00 0.00 76 1011.0
20260507075328 11 247 0.0 0.0 0.00 0.00 0.00 76 1011.0
20260507074828 11 270 0.0 0.0 0.00 0.00 0.00 76 1010.8
20260507074328 11 247 0.0 0.0 0.00 0.00 0.00 76 1010.9
20260507073828 11 247 0.0 0.0 0.00 0.00 0.00 77 1010.8
20260507073328 11 270 0.0 0.0 0.00 0.00 0.00 78 1010.8
20260507072828 11 270 0.0 0.0 0.00 0.00 0.00 78 1010.7
20260507072328 10 292 0.0 0.0 0.00 0.00 0.00 79 1010.7
20260507071828 10 292 0.0 0.0 0.00 0.00 0.00 79 1010.6
20260507071328 10 292 0.0 0.0 0.00 0.00 0.00 79 1010.6
20260507070828 10 315 0.0 0.0 0.00 0.00 0.00 79 1010.5
20260507070328 10 292 0.0 0.0 0.00 0.00 0.00 80 1010.5
20260507065828 10 270 0.0 0.0 0.00 0.00 0.00 80 1010.4
20260507065328 10 315 0.0 0.0 0.00 0.00 0.00 80 1010.4
20260507064828 10 270 0.0 0.0 0.00 0.00 0.00 81 1010.3
20260507064328 10 270 0.0 0.0 0.00 0.00 0.00 81 1010.2
20260507063828 10 292 0.0 0.0 0.00 0.00 0.00 82 1010.3
20260507063328 9 270 0.0 0.0 0.00 0.00 0.00 82 1010.3
20260507062828 9 270 0.0 0.0 0.00 0.00 0.00 83 1010.3
20260507062328 9 292 0.0 0.0 0.00 0.00 0.00 83 1010.2
20260507061828 9 292 0.0 0.0 0.00 0.00 0.00 83 1010.2
20260507061328 9 270 0.0 0.0 0.00 0.00 0.00 84 1010.2
20260507060828 8 270 0.0 0.0 0.00 0.00 0.00 84 1010.2
20260507060328 9 270 0.0 0.0 0.00 0.00 0.00 84 1010.1
20260507055828 9 315 0.0 0.0 0.00 0.00 0.00 84 1010.1
20260507055328 9 315 0.0 0.0 0.00 0.00 0.00 85 1009.9
20260507054828 8 315 0.0 0.0 0.00 0.00 0.00 85 1009.9
20260507054328 8 315 0.0 0.0 0.00 0.00 0.00 86 1009.8
20260507053828 8 315 0.0 0.0 0.00 0.00 0.00 86 1009.8
20260507053328 8 315 0.0 0.0 0.00 0.00 0.00 86 1009.7
20260507052828 8 315 0.0 0.0 0.00 0.00 0.00 86 1009.7
20260507052328 8 315 0.0 0.0 0.00 0.00 0.00 86 1009.7
20260507051828 8 315 0.0 0.0 0.00 0.00 0.00 86 1009.5
20260507051328 8 315 0.0 0.0 0.00 0.00 0.00 86 1009.4
20260507050828 8 292 0.0 0.0 0.00 0.00 0.00 86 1009.4
20260507050328 8 292 0.0 0.0 0.00 0.00 0.00 86 1009.3
20260507045828 8 292 0.0 0.0 0.00 0.00 0.00 87 1009.3
20260507045328 8 292 0.0 0.0 0.00 0.00 0.00 87 1009.2
20260507044828 8 292 0.0 0.0 0.00 0.00 0.00 87 1009.1
20260507044328 7 292 0.0 0.0 0.00 0.00 0.00 87 1009.0
20260507043828 7 292 0.0 0.0 0.00 0.00 0.00 87 1009.0
20260507043328 7 270 0.0 0.0 0.00 0.00 0.00 87 1008.8
20260507042828 7 292 0.0 0.0 0.00 0.00 0.00 87 1008.9
20260507042328 7 292 0.0 0.0 0.00 0.00 0.00 87 1008.8
20260507041828 7 292 0.0 0.0 0.00 0.00 0.00 87 1008.7
20260507041328 7 292 0.0 0.0 0.00 0.00 0.00 87 1008.7
20260507040828 7 292 0.0 0.0 0.00 0.00 0.00 87 1008.9
20260507040328 7 292 0.0 0.0 0.00 0.00 0.00 87 1008.9
20260507035828 7 292 0.0 0.0 0.00 0.00 0.00 87 1008.7
20260507035328 7 292 0.0 0.0 0.00 0.00 0.00 87 1008.9
20260507034828 7 292 0.0 0.0 0.00 0.00 0.00 87 1008.9
20260507034328 7 292 0.0 0.0 0.00 0.00 0.00 87 1008.8
20260507033828 7 292 0.0 0.0 0.00 0.00 0.00 87 1008.8
20260507033328 7 292 0.0 0.0 0.00 0.00 0.00 87 1008.7
20260507032828 7 292 0.0 0.0 0.00 0.00 0.00 87 1008.8
20260507032328 7 292 0.0 0.0 0.00 0.00 0.00 87 1008.7
20260507031828 7 292 0.0 0.0 0.00 0.00 0.00 87 1008.7
20260507031328 7 292 0.0 0.0 0.00 0.00 0.00 87 1008.6
20260507030828 7 292 0.0 0.0 0.00 0.00 0.00 87 1008.6
20260507030328 7 292 0.0 0.0 0.00 0.00 0.00 87 1008.6
20260507025828 7 292 0.0 0.0 0.00 0.00 0.00 87 1008.6
20260507025328 7 292 0.0 0.0 0.00 0.00 0.00 87 1008.6
20260507024828 7 292 0.0 0.0 0.00 0.00 0.00 87 1008.5
20260507024328 7 292 0.0 0.0 0.00 0.00 0.00 87 1008.6
20260507023828 7 292 0.0 0.0 0.00 0.00 0.00 87 1008.5
20260507023328 7 292 0.0 0.0 0.00 0.00 0.00 87 1008.6
20260507022828 7 292 0.0 0.0 0.00 0.00 0.00 87 1008.5
20260507022328 7 292 0.0 0.0 0.00 0.00 0.00 87 1008.5
20260507021828 7 292 0.0 0.0 0.00 0.00 0.00 87 1008.5
20260507021328 7 292 0.0 0.0 0.00 0.00 0.00 87 1008.4
20260507020828 7 292 0.0 0.0 0.00 0.00 0.00 87 1008.3
20260507020328 7 292 0.0 0.0 0.00 0.00 0.00 87 1008.3
20260507015828 7 292 0.0 0.0 0.00 0.00 0.00 87 1008.2
20260507015328 7 292 0.0 0.0 0.00 0.00 0.00 87 1008.2
20260507014828 7 292 0.0 0.0 0.00 0.00 0.00 87 1008.1
20260507014328 7 292 0.0 0.0 0.00 0.00 0.00 87 1008.1
20260507013828 7 292 0.0 0.0 0.00 0.00 0.00 86 1008.1
20260507013328 7 292 0.0 0.0 0.00 0.00 0.00 86 1008.1
20260507012828 7 292 0.0 0.0 0.00 0.00 0.00 86 1008.2
20260507012328 7 292 0.0 0.0 0.00 0.00 0.00 86 1008.1
20260507011828 7 292 0.0 0.0 0.00 0.00 0.00 86 1008.1
20260507011328 7 292 0.0 0.0 0.00 0.00 0.00 86 1008.1
20260507011017 7 292 0.0 0.0 0.00 0.00 0.00 85 1008.0
20260507010328 7 292 0.0 0.0 0.00 0.00 0.00 85 1008.0
20260507005828 7 292 0.0 0.0 0.00 0.00 0.00 85 1008.0
20260507005328 7 292 0.0 0.0 0.00 0.00 0.00 85 1008.0
20260507004829 7 292 0.0 0.0 0.00 0.00 0.00 85 1008.0
20260507004328 7 292 0.0 0.0 0.00 0.00 0.00 85 1008.0
20260507003828 7 292 0.0 0.0 0.00 0.00 0.00 84 1008.0
20260507003328 7 292 0.0 0.0 0.00 0.00 0.00 84 1007.8
20260507002828 7 292 0.0 0.0 0.00 0.00 0.00 84 1008.0
20260507002328 8 292 0.0 0.0 0.00 0.00 0.00 84 1007.8
20260507001828 8 292 0.0 0.0 0.00 0.00 0.00 84 1007.7
20260507001328 8 292 0.0 0.0 0.00 0.00 0.00 83 1007.8
20260507000828 8 292 0.0 0.0 0.00 0.00 0.00 83 1007.6
20260507000328 8 292 0.0 0.0 0.00 0.00 0.00 83 1007.7
20260506235828 8 292 0.0 0.0 0.00 0.00 0.00 83 1007.8
20260506235329 8 292 0.0 0.0 0.00 0.00 0.00 83 1007.8
20260506234829 8 292 0.0 0.0 0.00 0.00 0.00 83 1007.8
20260506234329 8 292 0.0 0.0 0.00 0.00 0.00 83 1007.8
20260506233829 8 292 0.0 0.0 0.00 0.00 0.00 83 1007.8
20260506233329 8 292 0.0 0.0 0.00 0.00 0.00 83 1007.7
20260506232829 8 292 0.0 0.0 0.00 0.00 0.00 83 1007.8
20260506232329 8 292 0.0 0.0 0.00 0.00 0.00 83 1007.8
20260506231829 8 292 0.0 0.0 0.00 0.00 0.00 83 1007.7
20260506231329 8 270 0.0 0.0 0.00 0.00 0.00 83 1007.7
20260506230829 8 270 0.0 0.0 0.00 0.00 0.00 83 1007.7
20260506230329 8 270 0.0 0.0 0.00 0.00 0.00 83 1007.7
20260506225829 8 292 0.0 0.0 0.00 0.00 0.00 83 1007.7
20260506225329 8 292 0.0 0.0 0.00 0.00 0.00 83 1007.7
20260506224829 8 292 0.0 0.0 0.00 0.00 0.00 83 1007.7
20260506224329 8 292 0.0 0.0 0.00 0.00 0.00 83 1007.7
20260506223829 8 292 0.0 0.0 0.00 0.00 0.00 83 1007.6
20260506223329 8 292 0.0 0.0 0.00 0.00 0.00 83 1007.6
20260506222829 8 292 0.0 0.0 0.00 0.00 0.00 83 1007.5
20260506222329 8 270 0.0 0.0 0.00 0.00 0.00 83 1007.5
20260506221829 8 270 0.0 0.0 0.00 0.00 0.00 83 1007.4
20260506221329 8 292 0.0 0.0 0.00 0.00 0.00 84 1007.4
20260506220829 8 247 0.0 0.0 0.00 0.00 0.00 84 1007.4
20260506220329 8 247 0.0 0.0 0.00 0.00 0.00 84 1007.3
20260506215829 8 247 0.0 0.0 0.00 0.00 0.00 83 1007.2
20260506215329 8 247 0.0 0.0 0.00 0.00 0.00 83 1007.2
20260506214829 8 247 0.0 0.0 0.00 0.00 0.00 83 1007.1
20260506214329 8 247 0.0 0.0 0.00 0.00 0.00 83 1007.0
20260506213829 8 247 0.0 0.0 0.00 0.00 0.00 83 1007.1
20260506213329 8 247 0.0 0.0 0.00 0.00 0.00 83 1007.0
20260506212829 8 247 0.0 0.0 0.00 0.00 0.00 83 1007.1
20260506212329 8 247 0.0 0.0 0.00 0.00 0.00 82 1007.1
20260506211829 8 247 0.0 0.0 0.00 0.00 0.00 82 1007.0
20260506211329 8 247 0.0 0.0 0.00 0.00 0.00 82 1006.9
20260506210829 8 247 0.0 0.0 0.00 0.00 0.00 82 1006.8
20260506210329 8 247 0.0 0.0 0.00 0.00 0.00 82 1006.9
20260506205829 8 247 0.0 0.0 0.00 0.00 0.00 82 1006.9
20260506205329 8 247 0.0 0.0 0.00 0.00 0.00 82 1006.9
20260506204829 8 292 0.0 0.0 0.00 0.00 0.00 81 1006.8
20260506204329 8 292 0.0 0.0 0.00 0.00 0.00 81 1006.8
20260506203829 8 292 0.0 0.0 0.00 0.00 0.00 81 1006.7
20260506203329 8 292 0.0 0.0 0.00 0.00 0.00 81 1006.7
20260506202829 8 292 0.0 0.0 0.00 0.00 0.00 81 1006.7
20260506202329 8 292 0.0 0.0 0.00 0.00 0.00 81 1006.7
20260506201829 9 292 0.0 0.0 0.00 0.00 0.00 81 1006.6
20260506201329 9 292 0.0 0.0 0.00 0.00 0.00 81 1006.5
20260506200829 9 292 0.0 0.0 0.00 0.00 0.00 81 1006.4
20260506200329 9 292 0.0 0.0 0.00 0.00 0.00 80 1006.4
20260506195829 9 292 0.0 0.0 0.00 0.00 0.00 80 1006.4
20260506195329 9 270 0.0 0.0 0.00 0.00 0.00 80 1006.3
20260506194829 9 270 0.0 0.0 0.00 0.00 0.00 80 1006.2
20260506194329 9 270 0.0 0.0 0.00 0.00 0.00 80 1006.2
20260506193829 9 270 0.0 0.0 0.00 0.00 0.00 80 1006.2
20260506193329 9 270 0.0 0.0 0.00 0.00 0.00 80 1006.1
20260506192829 9 315 0.0 0.0 0.00 0.00 0.00 79 1006.0
20260506192329 9 315 0.0 0.0 0.00 0.00 0.00 79 1005.9
20260506191829 10 315 0.0 0.0 0.00 0.00 0.00 79 1005.9
20260506191329 10 315 0.0 0.0 0.00 0.00 0.00 79 1005.9
20260506190829 10 315 0.0 0.0 0.00 0.00 0.00 79 1005.8
20260506190329 10 315 0.0 0.0 0.00 0.00 0.00 78 1005.8
20260506185829 10 315 0.0 0.0 0.00 0.00 0.00 78 1005.7
20260506185329 10 315 0.0 0.0 0.00 0.00 0.00 78 1005.6
20260506184829 10 315 0.0 0.0 0.00 0.00 0.00 78 1005.5
20260506184329 10 315 0.0 0.0 0.00 0.00 0.00 78 1005.5
20260506183829 10 315 0.0 0.0 0.00 0.00 0.00 78 1005.3
20260506183329 10 315 0.0 0.0 0.00 0.00 0.00 78 1005.3
20260506182829 10 315 0.0 0.0 0.00 0.00 0.00 78 1005.3
20260506182329 10 315 0.0 0.0 0.00 0.00 0.00 77 1005.1
20260506181829 10 315 0.0 0.0 0.00 0.00 0.00 77 1005.1
20260506181329 10 315 0.0 0.0 0.00 0.00 0.00 77 1004.9
20260506180829 10 247 0.0 0.0 0.00 0.00 0.00 77 1005.0
20260506180329 10 247 0.0 0.0 0.00 0.00 0.00 77 1004.8
20260506175829 10 337 0.0 0.0 0.00 0.00 0.00 77 1004.9
20260506175329 10 292 0.0 0.0 0.00 0.00 0.00 77 1004.8
20260506174829 11 292 0.0 0.0 0.00 0.00 0.00 77 1004.8
20260506174329 11 292 0.0 0.0 0.00 0.00 0.00 77 1004.9
20260506173829 11 292 0.0 0.0 0.00 0.00 0.00 77 1004.9
20260506173329 11 337 0.0 0.0 0.00 0.00 0.00 77 1004.9
20260506172829 11 315 0.0 0.0 0.00 0.00 0.00 77 1004.8
20260506172329 11 315 0.0 0.0 0.00 0.00 0.00 76 1004.8
20260506171829 11 315 0.0 0.0 0.00 0.00 0.00 76 1004.8
20260506171329 11 315 0.0 0.0 0.00 0.00 0.00 76 1004.7
20260506170829 11 337 0.0 0.0 0.00 0.00 0.00 76 1004.8
20260506170329 11 337 0.0 0.0 0.00 0.00 0.00 75 1004.7
20260506165829 11 337 0.0 0.0 0.00 0.00 0.00 75 1004.7
20260506165329 11 337 0.0 0.0 0.00 0.00 0.00 75 1004.7
20260506164829 12 337 0.0 0.0 0.00 0.00 0.00 75 1004.6
20260506164329 12 315 0.0 0.0 0.00 0.00 0.00 75 1004.6
20260506163829 12 337 0.0 0.0 0.00 0.00 0.00 75 1004.6
20260506163329 12 270 0.0 0.0 0.00 0.00 0.00 75 1004.6
20260506162829 12 270 0.0 0.0 0.00 0.00 0.00 74 1004.5
20260506162329 12 270 0.0 0.0 0.00 0.00 0.00 74 1004.5
20260506161829 12 292 0.0 0.0 0.00 0.00 0.00 74 1004.5
20260506161329 12 247 0.0 0.0 0.00 0.00 0.00 74 1004.5
20260506160829 12 337 0.0 0.0 0.00 0.00 0.00 74 1004.6
20260506160329 12 315 0.0 0.0 0.00 0.00 0.00 74 1004.6
20260506155829 12 292 0.0 0.0 0.00 0.00 0.00 73 1004.6
20260506155329 12 315 0.0 0.0 0.00 0.00 0.00 72 1004.5
20260506154829 12 315 0.0 0.0 0.00 0.00 0.00 71 1004.4
20260506154329 13 315 0.0 0.0 0.00 0.00 0.00 71 1004.4
20260506153829 13 315 0.0 0.0 0.00 0.00 0.00 69 1004.4
20260506153329 13 315 0.0 0.0 0.00 0.00 0.00 68 1004.3
20260506152829 14 292 0.0 6.4 0.00 0.00 0.00 68 1004.2
20260506152330 15 337 0.0 0.0 0.00 0.00 0.00 70 1004.2
20260506151830 14 270 0.0 0.0 0.00 0.00 0.00 71 1004.1
20260506151330 13 292 0.0 0.0 0.00 0.00 0.00 70 1004.1
20260506150830 13 247 0.0 0.0 0.00 0.00 0.00 69 1004.2
20260506150329 14 337 0.0 0.0 0.00 0.00 0.00 68 1004.2
20260506145830 15 337 0.0 0.0 0.00 0.00 0.00 69 1004.2
20260506145330 15 315 0.0 0.0 0.00 0.00 0.00 70 1004.1
20260506144830 15 247 0.0 0.0 0.00 0.00 0.00 71 1004.0
20260506144330 14 292 0.0 0.0 0.00 0.00 0.00 70 1004.1
20260506143830 14 337 0.0 0.0 0.00 0.00 0.00 69 1004.1
20260506143330 15 270 0.0 0.0 0.00 0.00 0.00 69 1004.0
20260506142830 15 337 0.0 0.0 0.00 0.00 0.00 70 1004.0
20260506142330 15 292 0.0 0.0 0.00 0.00 0.00 72 1004.0
20260506141830 15 292 0.0 0.0 0.00 0.00 0.00 72 1004.2
20260506141330 14 0 0.0 0.0 0.00 0.00 0.00 72 1004.1
20260506140830 13 0 0.0 0.0 0.00 0.00 0.00 76 1004.1
20260506140330 12 292 0.0 0.0 0.00 0.00 0.00 75 1004.1
20260506135830 13 337 0.0 0.0 0.00 0.00 0.00 75 1004.1
20260506135330 13 292 0.0 0.0 0.00 0.00 0.00 76 1004.0
20260506134830 12 337 0.0 0.0 0.00 0.00 0.00 76 1004.1
20260506134330 12 337 0.0 0.0 0.00 0.00 0.00 76 1004.2
20260506133830 12 337 0.0 0.0 0.00 0.00 0.00 76 1004.1
20260506133330 12 225 0.0 0.0 0.00 0.00 0.00 75 1004.1
20260506132830 12 337 0.0 0.0 0.00 0.00 0.00 75 1004.1
20260506132330 12 337 0.0 0.0 0.00 0.00 0.00 75 1004.1
20260506131830 13 315 0.0 0.0 0.00 0.00 0.00 75 1004.0
20260506131330 13 270 0.0 0.0 0.00 0.00 0.00 76 1004.0
20260506130830 13 315 0.0 0.0 0.00 0.00 0.00 77 1003.9
20260506130330 13 292 0.0 0.0 0.00 0.00 0.00 77 1003.9
20260506125830 12 270 0.0 0.0 0.00 0.00 0.00 76 1003.8
20260506125330 13 315 0.0 0.0 0.00 0.00 0.00 77 1003.8
20260506124830 13 315 0.0 0.0 0.00 0.00 0.00 77 1003.8
20260506124330 12 0 0.0 0.0 0.00 0.00 0.00 77 1003.7
20260506123830 12 337 0.0 0.0 0.00 0.00 0.00 77 1003.7
20260506123330 12 337 0.0 0.0 0.00 0.00 0.00 77 1003.7
20260506122830 12 247 0.0 0.0 0.00 0.00 0.00 77 1003.5
20260506122330 12 0 0.0 0.0 0.00 0.00 0.00 77 1003.5
20260506121830 12 247 0.0 1.6 0.00 0.00 0.00 77 1003.5
20260506121330 13 337 1.6 1.6 0.00 0.00 0.00 77 1003.5
20260506120830 13 337 0.0 0.0 0.00 0.00 0.00 77 1003.4
20260506120330 13 337 0.0 0.0 0.00 0.00 0.00 77 1003.4
20260506115830 13 247 0.0 0.0 0.00 0.00 0.00 78 1003.3
20260506115330 13 247 0.0 0.0 0.00 0.00 0.00 78 1003.2
20260506114830 13 247 0.0 0.0 0.00 0.00 0.00 78 1003.4
20260506114330 13 247 0.0 0.0 0.00 0.00 0.00 78 1003.3
20260506113830 13 270 0.0 0.0 0.00 0.00 0.00 77 1003.2
20260506113330 13 270 0.0 0.0 0.00 0.00 0.00 77 1003.2
20260506112830 13 270 0.0 0.0 0.00 0.00 0.00 78 1003.1
20260506112330 13 270 0.0 0.0 0.00 0.00 0.00 78 1003.2
20260506111830 13 270 0.0 0.0 0.00 0.00 0.00 78 1003.2
20260506111330 13 337 0.0 0.0 0.00 0.00 0.00 77 1003.2
20260506110830 13 225 0.0 0.0 0.00 0.00 0.00 77 1003.2
20260506110330 13 337 0.0 0.0 0.00 0.00 0.00 77 1003.1
20260506105830 13 315 0.0 0.0 0.00 0.00 0.00 77 1003.1
20260506105330 13 247 0.0 0.0 0.00 0.00 0.00 77 1003.0
20260506104830 13 315 0.0 0.0 0.00 0.00 0.00 77 1003.0
20260506104330 13 247 0.0 0.0 0.00 0.00 0.00 76 1002.9
20260506103830 13 315 0.0 0.0 0.00 0.00 0.00 76 1002.9
20260506103330 13 337 0.0 0.0 0.00 0.00 0.00 76 1002.9
20260506102830 13 270 0.0 0.0 0.00 0.00 0.00 77 1002.8
20260506102330 13 337 0.0 0.0 0.00 0.00 0.00 78 1002.9
20260506101830 13 292 0.0 0.0 0.00 0.00 0.00 79 1002.9
20260506101330 13 315 0.0 0.0 0.00 0.00 0.00 79 1002.8
20260506100830 13 337 0.0 0.0 0.00 0.00 0.00 80 1002.7
20260506100330 12 337 0.0 0.0 0.00 0.00 0.00 80 1002.7
20260506095830 12 337 0.0 0.0 0.00 0.00 0.00 81 1002.7
20260506095330 12 337 0.0 0.0 0.00 0.00 0.00 80 1002.7
20260506094830 12 247 0.0 0.0 0.00 0.00 0.00 80 1002.7
20260506094330 12 315 0.0 0.0 0.00 0.00 0.00 80 1002.7
20260506093830 12 292 0.0 0.0 0.00 0.00 0.00 81 1002.6